Weather History for Ambler, AK

Change the Weather History Date:

Saturday, September 7, 2013

  Actual Average Record
Temperature  
Mean Temperature 45 °F -  
Max Temperature 57 °F 49 °F 66 °F (1996)
Min Temperature 33 °F 36 °F 24 °F (1990)
Degree Days  
Heating Degree Days 20    
Moisture  
Dew Point 36 °F    
Average Humidity 74    
Maximum Humidity 93    
Minimum Humidity 51    
Precipitation  
Precipitation 0.00 in - - ()
Sea Level Pressure  
Sea Level Pressure 29.72 in    
Wind  
Wind Speed 3 mph (West)    
Max Wind Speed 7 mph    
Max Gust Speed -    
Visibility 10 miles    
Events      
Averages and records for this station are not official NWS values.
T = Trace of Precipitation, MM = Missing Value Source: NWS Daily Summary

Daily Weather History Graph

Daily Weather History Graph

Search for Another Location

Airport:

Trip Planner

Search our weather history database for the weather conditions in past years. The results will help you decide how hot, cold, wet, or windy it might be!

Date:

Astronomy

Sep. 07, 2013 Rise Set
Actual Time 7:24 AM AKDT 9:31 PM AKDT
Civil Twilight 6:25 AM AKDT 10:29 PM AKDT
Nautical Twilight 5:03 AM AKDT 11:50 PM AKDT
Astronomical Twilight 3:01 AM AKDT 1:56 AM AKDT
Moon 11:19 AM AKDT (9/7) 8:58 PM AKDT (9/7)
Length of Visible Light 16h 03m
Length of Day
14h 07m
Waxing Crescent, 6% of the Moon is Illuminated
Sep 7
Waxing Crescent
Sep 12
First Quarter
Sep 19
Full
Sep 26
Last Quarter
Oct 4
New

Hourly Weather History & Observations

Time (AKDT) Temp. Windchill Dew Point Humidity Pressure Visibility Wind Dir Wind Speed Gust Speed Precip Events Conditions
12:16 AM 42.8 °F 40.1 °F 37.4 °F 81% 29.70 in 10.0 mi North 4.6 mph - N/A   Partly Cloudy
12:36 AM 41.0 °F - 37.4 °F 87% 29.70 in 10.0 mi Calm Calm - N/A   Clear
12:56 AM 39.2 °F - 35.6 °F 87% 29.70 in 10.0 mi Calm Calm - N/A   Clear
1:16 AM 39.2 °F - 37.4 °F 93% 29.70 in 10.0 mi Calm Calm - N/A   Clear
1:36 AM 39.2 °F - 35.6 °F 87% 29.70 in 10.0 mi Calm Calm - N/A   Clear
1:56 AM 39.2 °F 35.9 °F 35.6 °F 87% 29.70 in 10.0 mi West 4.6 mph - N/A   Clear
2:16 AM 37.4 °F 33.8 °F 33.8 °F 87% 29.70 in 10.0 mi WNW 4.6 mph - N/A   Clear
2:36 AM 39.2 °F - 35.6 °F 87% 29.70 in 10.0 mi Calm Calm - N/A   Clear
2:56 AM 37.4 °F 34.9 °F 33.8 °F 87% 29.71 in 10.0 mi WNW 3.5 mph - N/A   Clear
3:16 AM 35.6 °F 32.8 °F 32.0 °F 87% 29.70 in 10.0 mi WNW 3.5 mph - N/A   Clear
3:36 AM 35.6 °F 32.8 °F 33.8 °F 93% 29.71 in 10.0 mi West 3.5 mph - N/A   Clear
3:56 AM 37.4 °F 34.9 °F 33.8 °F 87% 29.70 in 10.0 mi WNW 3.5 mph - N/A   Clear
4:16 AM 37.4 °F 34.9 °F 33.8 °F 87% 29.70 in 10.0 mi WNW 3.5 mph - N/A   Clear
4:36 AM 35.6 °F 31.7 °F 33.8 °F 93% 29.70 in 10.0 mi WNW 4.6 mph - N/A   Clear
4:56 AM 35.6 °F 31.7 °F 33.8 °F 93% 29.70 in 10.0 mi WNW 4.6 mph - N/A   Clear
5:16 AM 35.6 °F 32.8 °F 33.8 °F 93% 29.70 in 10.0 mi WNW 3.5 mph - N/A   Clear
5:36 AM 35.6 °F 32.8 °F 32.0 °F 87% 29.70 in 10.0 mi WNW 3.5 mph - N/A   Clear
5:56 AM 35.6 °F 31.7 °F 32.0 °F 87% 29.70 in 10.0 mi WNW 4.6 mph - N/A   Clear
6:16 AM 33.8 °F 30.8 °F 30.2 °F 87% 29.70 in 10.0 mi WNW 3.5 mph - N/A   Clear
6:36 AM 33.8 °F 29.6 °F 30.2 °F 87% 29.70 in 10.0 mi WNW 4.6 mph - N/A   Clear
6:56 AM 35.6 °F 31.7 °F 32.0 °F 87% 29.70 in 10.0 mi WNW 4.6 mph - N/A   Clear
7:16 AM 35.6 °F 31.7 °F 32.0 °F 87% 29.70 in 10.0 mi West 4.6 mph - N/A   Clear
7:36 AM 33.8 °F 30.8 °F 30.2 °F 87% 29.70 in 10.0 mi WNW 3.5 mph - N/A   Clear
7:56 AM 33.8 °F 30.8 °F 30.2 °F 87% 29.71 in 10.0 mi WNW 3.5 mph - N/A   Clear
8:16 AM 33.8 °F 29.6 °F 30.2 °F 87% 29.71 in 2.5 mi West 4.6 mph - N/A   Scattered Clouds
8:36 AM 33.8 °F 30.8 °F 30.2 °F 87% 29.72 in 10.0 mi WNW 3.5 mph - N/A   Partly Cloudy
8:56 AM 33.8 °F 28.6 °F 30.2 °F 87% 29.72 in 5.0 mi West 5.8 mph - N/A   Scattered Clouds
9:16 AM 33.8 °F 28.6 °F 30.2 °F 87% 29.72 in 4.0 mi West 5.8 mph - N/A   Mostly Cloudy
9:36 AM 35.6 °F 30.7 °F 33.8 °F 93% 29.72 in 10.0 mi West 5.8 mph - N/A   Partly Cloudy
9:56 AM 35.6 °F 30.7 °F 33.8 °F 93% 29.72 in 10.0 mi West 5.8 mph - N/A   Clear
10:16 AM 37.4 °F 32.8 °F 33.8 °F 87% 29.73 in 10.0 mi West 5.8 mph - N/A   Clear
10:36 AM 37.4 °F 32.8 °F 35.6 °F 93% 29.74 in 10.0 mi West 5.8 mph - N/A   Clear
10:56 AM 39.2 °F 34.2 °F 35.6 °F 87% 29.74 in 10.0 mi West 6.9 mph - N/A   Clear
11:16 AM 39.2 °F 35.0 °F 35.6 °F 87% 29.74 in 10.0 mi West 5.8 mph - N/A   Clear
11:36 AM 42.8 °F 39.3 °F 37.4 °F 81% 29.75 in 10.0 mi WNW 5.8 mph - N/A   Clear
11:56 AM 44.6 °F 42.2 °F 37.4 °F 76% 29.75 in 10.0 mi WNW 4.6 mph - N/A   Clear
12:16 PM 46.4 °F 45.2 °F 37.4 °F 71% 29.75 in 10.0 mi WSW 3.5 mph - N/A   Clear
12:36 PM 48.2 °F - 39.2 °F 71% 29.75 in 10.0 mi WNW 3.5 mph - N/A   Clear
12:56 PM 48.2 °F - 39.2 °F 71% 29.75 in 10.0 mi Calm Calm - N/A   Clear
1:16 PM 48.2 °F - 39.2 °F 71% 29.75 in 10.0 mi WSW 3.5 mph - N/A   Clear
1:36 PM 50.0 °F - 39.2 °F 66% 29.75 in 10.0 mi SSW 4.6 mph - N/A   Clear
1:56 PM 51.8 °F - 39.2 °F 62% 29.75 in 10.0 mi SW 5.8 mph - N/A   Clear
2:16 PM 51.8 °F - 39.2 °F 62% 29.75 in 10.0 mi Calm Calm - N/A   Clear
2:36 PM 51.8 °F - 39.2 °F 62% 29.75 in 10.0 mi South 3.5 mph - N/A   Clear
2:56 PM 53.6 °F - 41.0 °F 62% 29.74 in 10.0 mi South 5.8 mph - N/A   Clear
3:16 PM 53.6 °F - 41.0 °F 62% 29.74 in 10.0 mi SSE 3.5 mph - N/A   Clear
3:36 PM 53.6 °F - 41.0 °F 62% 29.73 in 10.0 mi SSE 5.8 mph - N/A   Clear
3:56 PM 55.4 °F - 39.2 °F 54% 29.73 in 10.0 mi Calm Calm - N/A   Clear
4:16 PM 55.4 °F - 39.2 °F 54% 29.73 in 10.0 mi Calm Calm - N/A   Clear
4:36 PM 55.4 °F - 39.2 °F 54% 29.72 in 10.0 mi West 3.5 mph - N/A   Clear
4:56 PM 57.2 °F - 39.2 °F 51% 29.72 in 10.0 mi SW 4.6 mph - N/A   Clear
5:16 PM 57.2 °F - 39.2 °F 51% 29.72 in 10.0 mi WSW 5.8 mph - N/A   Clear
5:36 PM 57.2 °F - 39.2 °F 51% 29.72 in 10.0 mi WSW 6.9 mph - N/A   Clear
5:56 PM 57.2 °F - 39.2 °F 51% 29.71 in 10.0 mi West 6.9 mph - N/A   Clear
6:16 PM 57.2 °F - 39.2 °F 51% 29.71 in 10.0 mi WNW 6.9 mph - N/A   Clear
6:36 PM 57.2 °F - 39.2 °F 51% 29.71 in 10.0 mi West 5.8 mph - N/A   Clear
6:56 PM 55.4 °F - 39.2 °F 54% 29.70 in 10.0 mi West 5.8 mph - N/A   Clear
7:16 PM 55.4 °F - 39.2 °F 54% 29.71 in 10.0 mi West 4.6 mph - N/A   Clear
7:36 PM 55.4 °F - 37.4 °F 51% 29.71 in 10.0 mi West 4.6 mph - N/A   Clear
7:56 PM 55.4 °F - 37.4 °F 51% 29.70 in 10.0 mi West 4.6 mph - N/A   Clear
8:16 PM 55.4 °F - 37.4 °F 51% 29.70 in 10.0 mi West 3.5 mph - N/A   Clear
8:36 PM 53.6 °F - 37.4 °F 54% 29.70 in 10.0 mi Calm Calm - N/A   Clear
8:56 PM 51.8 °F - 37.4 °F 58% 29.70 in 10.0 mi West 3.5 mph - N/A   Clear
9:16 PM 50.0 °F - 37.4 °F 62% 29.70 in 10.0 mi West 3.5 mph - N/A   Clear
9:36 PM 48.2 °F - 37.4 °F 66% 29.70 in 10.0 mi West 3.5 mph - N/A   Clear
9:56 PM 46.4 °F 45.2 °F 37.4 °F 71% 29.70 in 10.0 mi West 3.5 mph - N/A   Clear
10:16 PM 46.4 °F - 37.4 °F 71% 29.70 in 10.0 mi Calm Calm - N/A   Clear
10:36 PM 46.4 °F - 35.6 °F 66% 29.70 in 10.0 mi Calm Calm - N/A   Clear
10:56 PM 42.8 °F - 35.6 °F 76% 29.70 in 10.0 mi Calm Calm - N/A   Clear
11:16 PM 42.8 °F - 35.6 °F 76% 29.70 in 10.0 mi Calm Calm - N/A   Clear
11:36 PM 42.8 °F - 35.6 °F 76% 29.70 in 10.0 mi Calm Calm - N/A   Clear
11:56 PM 42.8 °F 41.1 °F 35.6 °F 76% 29.70 in 10.0 mi NE 3.5 mph - N/A   Clear